Location: ??????
(31.2056°N, 45.3906°E)
Time: 19:16:10
(UTC+00:00)

SJ-6B - Pass Details

Date: 09 April 2020
Orbit: 509 x 582 km, 97.6° (Epoch: 28 May)

Event Time Altitude Azimuth Distance (km) Brightness Sun altitude
Exits shadow 17:03:27 37° 182° (S) 908 3.7 -21.3°
Maximum altitude 17:05:00 74° 258° (WSW) 607 3.0 -21.6°
Drops below altitude 10° 17:09:08 10° 344° (NNW) 1,904 6.1 -22.4°
Sets 17:11:18 0° 347° (NNW) 2,806 7.0 -22.8°
